• In Hungary
  • List of Countries
  • For 7 days
  • Water Temperature
  • Satellite Maps
  • Weather Map
  • News
  • Weather Widgets
  • user-avatar
    Login

    Hourly Weather Maydan

    Today, 24 October, Wednesday

    Time Temperature Precipitation Wind Pressure Humidity
    00:00 +10°C° 0 mm 6 mps 748 mmHg 66%
    01:00 +10°C° 0 mm 6 mps 748 mmHg 65%
    02:00 +9°C° 0.1 mm 6 mps 748 mmHg 68%
    03:00 +9°C° 0.1 mm 7 mps 748 mmHg 72%
    04:00 +9°C° 0 mm 8 mps 747 mmHg 65%
    05:00 +7°C° 0.2 mm 8 mps 747 mmHg 68%
    06:00 +8°C° 0.2 mm 7 mps 747 mmHg 72%
    07:00 +6°C° 0.2 mm 7 mps 747 mmHg 75%
    08:00 +8°C° 0 mm 7 mps 747 mmHg 72%
    09:00 +8°C° 0 mm 7 mps 746 mmHg 69%
    10:00 +9°C° 0 mm 7 mps 746 mmHg 66%
    11:00 +10°C° 0 mm 7 mps 746 mmHg 64%
    12:00 +11°C° 0 mm 7 mps 746 mmHg 62%
    13:00 +13°C° 0 mm 6 mps 745 mmHg 60%
    14:00 +13°C° 0 mm 6 mps 745 mmHg 60%
    15:00 +13°C° 0 mm 5 mps 745 mmHg 60%
    16:00 +14°C° 0 mm 5 mps 745 mmHg 60%
    17:00 +13°C° 0 mm 4 mps 745 mmHg 64%
    18:00 +12°C° 0 mm 4 mps 745 mmHg 67%
    19:00 +11°C° 0 mm 3 mps 745 mmHg 70%
    20:00 +11°C° 0 mm 4 mps 745 mmHg 71%
    21:00 +11°C° 0 mm 4 mps 744 mmHg 73%
    22:00 +11°C° 0 mm 4 mps 744 mmHg 75%
    23:00 +10°C° 0 mm 4 mps 744 mmHg 75%

    Tomorrow, 25 October, Thursday

    Time Temperature Precipitation Wind Pressure Humidity
    00:00 +10°C° 0 mm 4 mps 744 mmHg 75%
    01:00 +10°C° 0 mm 4 mps 744 mmHg 76%
    02:00 +10°C° 0 mm 4 mps 744 mmHg 78%
    03:00 +10°C° 0 mm 4 mps 744 mmHg 80%
    04:00 +8°C° 0 mm 4 mps 744 mmHg 82%
    05:00 +8°C° 0 mm 4 mps 744 mmHg 82%
    06:00 +8°C° 0 mm 5 mps 743 mmHg 81%
    07:00 +8°C° 0 mm 5 mps 743 mmHg 81%
    08:00 +10°C° 0 mm 6 mps 743 mmHg 75%
    09:00 +11°C° 0 mm 7 mps 743 mmHg 69%
    10:00 +13°C° 0 mm 8 mps 743 mmHg 63%
    11:00 +16°C° 0 mm 8 mps 742 mmHg 57%
    12:00 +17°C° 0 mm 9 mps 742 mmHg 51%
    13:00 +19°C° 0 mm 9 mps 741 mmHg 45%
    14:00 +19°C° 0 mm 9 mps 741 mmHg 46%
    15:00 +20°C° 0 mm 8 mps 740 mmHg 47%
    16:00 +20°C° 0 mm 8 mps 740 mmHg 47%
    17:00 +20°C° 0 mm 8 mps 740 mmHg 48%
    18:00 +18°C° 0 mm 8 mps 739 mmHg 48%
    19:00 +17°C° 0 mm 9 mps 739 mmHg 48%
    20:00 +17°C° 0 mm 9 mps 739 mmHg 45%
    21:00 +17°C° 0 mm 10 mps 739 mmHg 43%
    22:00 +17°C° 0 mm 10 mps 738 mmHg 40%
    23:00 +16°C° 0 mm 10 mps 738 mmHg 40%

    Day after tomorrow, 26 October, Friday

    Time Temperature Precipitation Wind Pressure Humidity
    00:00 +16°C° 0 mm 10 mps 737 mmHg 39%
    01:00 +16°C° 0 mm 10 mps 737 mmHg 39%
    02:00 +16°C° 0 mm 10 mps 737 mmHg 39%
    03:00 +16°C° 0 mm 10 mps 736 mmHg 39%
    04:00 +16°C° 0 mm 10 mps 736 mmHg 39%
    05:00 +16°C° 0 mm 10 mps 736 mmHg 40%
    06:00 +16°C° 0 mm 9 mps 735 mmHg 41%
    07:00 +16°C° 0 mm 9 mps 735 mmHg 42%
    08:00 +16°C° 0 mm 9 mps 736 mmHg 43%
    09:00 +17°C° 0 mm 8 mps 736 mmHg 43%
    10:00 +17°C° 0 mm 8 mps 736 mmHg 44%
    11:00 +16°C° 0.1 mm 7 mps 737 mmHg 53%
    12:00 +15°C° 0.1 mm 7 mps 737 mmHg 61%
    13:00 +14°C° 0.1 mm 6 mps 738 mmHg 70%
    14:00 +13°C° 1.1 mm 6 mps 738 mmHg 72%
    15:00 +12°C° 1.1 mm 5 mps 739 mmHg 75%
    16:00 +10°C° 1.1 mm 5 mps 739 mmHg 78%
    17:00 +11°C° 0.1 mm 4 mps 740 mmHg 74%
    18:00 +10°C° 0.1 mm 4 mps 741 mmHg 71%
    19:00 +10°C° 0.1 mm 4 mps 741 mmHg 67%
    20:00 +8°C° 0 mm 4 mps 742 mmHg 66%
    21:00 +8°C° 0 mm 4 mps 742 mmHg 64%
    22:00 +7°C° 0 mm 4 mps 742 mmHg 62%
    23:00 +7°C° 0 mm 4 mps 743 mmHg 63%

    27 October, Saturday

    Time Temperature Precipitation Wind Pressure Humidity
    00:00 +7°C° 0 mm 4 mps 743 mmHg 63%
    01:00 +7°C° 0 mm 4 mps 744 mmHg 63%
    02:00 +6°C° 0 mm 4 mps 744 mmHg 66%
    03:00 +7°C° 0 mm 3 mps 744 mmHg 68%
    04:00 +5°C° 0 mm 3 mps 745 mmHg 71%
    05:00 +5°C° 0 mm 3 mps 745 mmHg 73%
    06:00 +4°C° 0 mm 3 mps 745 mmHg 75%
    07:00 +3°C° 0 mm 3 mps 745 mmHg 77%
    08:00 +5°C° 0 mm 3 mps 746 mmHg 71%
    09:00 +7°C° 0 mm 3 mps 746 mmHg 66%
    10:00 +7°C° 0 mm 4 mps 746 mmHg 61%
    11:00 +7°C° 0.1 mm 4 mps 746 mmHg 59%
    12:00 +7°C° 0.1 mm 4 mps 747 mmHg 58%
    13:00 +8°C° 0.1 mm 5 mps 747 mmHg 56%
    14:00 +8°C° 0.1 mm 5 mps 747 mmHg 57%
    15:00 +8°C° 0.1 mm 5 mps 747 mmHg 58%
    16:00 +7°C° 0.1 mm 5 mps 748 mmHg 59%
    17:00 +7°C° 0 mm 4 mps 748 mmHg 62%
    18:00 +6°C° 0 mm 4 mps 749 mmHg 65%
    19:00 +5°C° 0 mm 4 mps 750 mmHg 68%
    20:00 +5°C° 0 mm 4 mps 750 mmHg 69%
    21:00 +4°C° 0 mm 4 mps 751 mmHg 70%
    22:00 +4°C° 0 mm 4 mps 751 mmHg 71%
    23:00 +4°C° 0 mm 4 mps 751 mmHg 71%

    28 October, Sunday

    Time Temperature Precipitation Wind Pressure Humidity
    00:00 +4°C° 0 mm 4 mps 752 mmHg 72%
    01:00 +3°C° 0 mm 5 mps 752 mmHg 72%
    02:00 +3°C° 0 mm 5 mps 752 mmHg 74%
    03:00 +3°C° 0 mm 6 mps 752 mmHg 75%
    04:00 +3°C° 0 mm 6 mps 752 mmHg 77%
    05:00 +3°C° 0 mm 7 mps 751 mmHg 75%
    06:00 +2°C° 0 mm 8 mps 751 mmHg 72%
    07:00 +2°C° 0 mm 8 mps 751 mmHg 69%
    08:00 +5°C° 0 mm 10 mps 750 mmHg 66%
    09:00 +6°C° 0 mm 11 mps 750 mmHg 62%
    10:00 +7°C° 0 mm 12 mps 750 mmHg 59%
    11:00 +8°C° 0.4 mm 12 mps 749 mmHg 62%
    12:00 +8°C° 0.4 mm 13 mps 749 mmHg 66%
    13:00 +9°C° 0.4 mm 13 mps 749 mmHg 70%
    14:00 +9°C° 0.7 mm 12 mps 749 mmHg 73%
    15:00 +9°C° 0.7 mm 12 mps 749 mmHg 76%
    16:00 +10°C° 0.7 mm 12 mps 749 mmHg 79%
    17:00 +9°C° 0.3 mm 11 mps 749 mmHg 78%
    18:00 +9°C° 0.3 mm 10 mps 750 mmHg 77%
    19:00 +10°C° 0.3 mm 9 mps 750 mmHg 76%
    20:00 +9°C° 0 mm 8 mps 751 mmHg 71%
    21:00 +8°C° 0 mm 7 mps 752 mmHg 66%
    22:00 +5°C° 0 mm 6 mps 752 mmHg 60%
    23:00 +6°C° 0 mm 5 mps 753 mmHg 62%

    29 October, Monday

    Time Temperature Precipitation Wind Pressure Humidity
    00:00 +5°C° 0 mm 5 mps 753 mmHg 63%
    01:00 +3°C° 0 mm 5 mps 754 mmHg 65%
    02:00 +3°C° 0 mm 5 mps 754 mmHg 67%
    03:00 +3°C° 0 mm 5 mps 755 mmHg 70%
    04:00 +2°C° 0 mm 5 mps 755 mmHg 72%
    05:00 +2°C° 0 mm 5 mps 756 mmHg 73%
    06:00 +2°C° 0 mm 5 mps 756 mmHg 73%
    07:00 +2°C° 0 mm 5 mps 757 mmHg 74%
    08:00 +3°C° 0 mm 4 mps 757 mmHg 71%
    09:00 +4°C° 0 mm 4 mps 758 mmHg 68%
    10:00 +4°C° 0 mm 4 mps 758 mmHg 65%
    11:00 +5°C° 0 mm 4 mps 758 mmHg 61%
    12:00 +6°C° 0 mm 4 mps 759 mmHg 57%
    13:00 +6°C° 0 mm 4 mps 759 mmHg 52%
    14:00 +7°C° 0 mm 3 mps 759 mmHg 53%
    15:00 +7°C° 0 mm 3 mps 759 mmHg 54%
    16:00 +5°C° 0 mm 3 mps 759 mmHg 55%
    17:00 +6°C° 0.1 mm 2 mps 759 mmHg 58%
    18:00 +6°C° 0.1 mm 2 mps 760 mmHg 61%
    19:00 +6°C° 0.1 mm 1 mps 760 mmHg 64%
    20:00 +6°C° 0.3 mm 1 mps 760 mmHg 66%
    21:00 +6°C° 0.3 mm 1 mps 760 mmHg 69%
    22:00 +6°C° 0.3 mm 1 mps 760 mmHg 71%
    23:00 +6°C° 0.1 mm 1 mps 760 mmHg 72%

    30 October, Tuesday

    Time Temperature Precipitation Wind Pressure Humidity
    00:00 +6°C° 0.1 mm 1 mps 760 mmHg 74%
    01:00 +6°C° 0.1 mm 1 mps 760 mmHg 75%
    02:00 +6°C° 0.2 mm 1 mps 759 mmHg 77%
    03:00 +6°C° 0.2 mm 1 mps 759 mmHg 79%
    04:00 +6°C° 0.2 mm 1 mps 759 mmHg 80%
    05:00 +6°C° 0.2 mm 1 mps 759 mmHg 82%
    06:00 +6°C° 0.2 mm 1 mps 760 mmHg 83%
    07:00 +4°C° 0.2 mm 2 mps 760 mmHg 85%
    08:00 +5°C° 0.1 mm 2 mps 760 mmHg 84%
    09:00 +5°C° 0.1 mm 2 mps 760 mmHg 83%
    10:00 +5°C° 0.1 mm 2 mps 760 mmHg 82%
    11:00 +4°C° 0 mm 3 mps 760 mmHg 80%
    12:00 +4°C° 0 mm 3 mps 761 mmHg 79%
    13:00 +4°C° 0 mm 3 mps 761 mmHg 77%
    14:00 +4°C° 0 mm 3 mps 761 mmHg 77%
    15:00 +4°C° 0 mm 3 mps 761 mmHg 76%
    16:00 +4°C° 0 mm 3 mps 761 mmHg 76%
    17:00 +4°C° 0 mm 3 mps 762 mmHg 76%
    18:00 +4°C° 0 mm 3 mps 762 mmHg 75%
    19:00 +3°C° 0 mm 3 mps 762 mmHg 75%
    20:00 +3°C° 0 mm 3 mps 762 mmHg 75%
    21:00 +3°C° 0 mm 3 mps 762 mmHg 76%
    22:00 +3°C° 0 mm 3 mps 763 mmHg 76%
    23:00 +3°C° 0 mm 4 mps 763 mmHg 74%
    Show more